Hourly Data Report for October 02, 2017

All times are specified in Local Standard Time (LST). Add 1 hour to adjust for Daylight Saving Time where and when it is observed.

ASHCROFT
BRITISH COLUMBIA

50°42'30.005" N
121°16'53.001" W
327.00 m
1160515
71681
VAS

Download Data

Hourly Data (October 2017)
Hourly Data Report for October 2, 2017
Temp Definition
°C
Dew Point Temp Definition
°C
Rel Hum Definition
%
Wind Dir Definition
10's deg

Wind Spd Definition
km/h
Visibility Definition
km
Stn Press Definition
kPa
Hmdx Definition


Wind Chill Definition


Weather Definition


TIME
00:00 11.2 1.5 51 2 14   98.32     LegendNANA
01:00 10.9 1.2 51 2 15   98.36     LegendNANA
02:00 10.6 1.0 51 2 10   98.39     LegendNANA
03:00 10.4 0.8 51 3 10   98.42     LegendNANA
04:00 9.9 0.2 51 2 10   98.47     LegendNANA
05:00 9.9 0.0 50 1 9   98.54     LegendNANA
06:00 9.5 -0.3 50 35 17   98.57     LegendNANA
07:00 9.1 -0.5 51 36 16   98.66     LegendNANA
08:00 9.1 -1.0 49 36 15   98.73     LegendNANA
09:00 10.3 -1.7 43 36 15   98.78     LegendNANA
10:00 11.3 -1.8 40 3 20   98.76     LegendNANA
11:00 12.7 -1.8 36 2 17   98.76     LegendNANA
12:00 13.8 -2.6 32 1 20   98.74     LegendNANA
13:00 14.8 -2.7 30 35 20   98.73     LegendNANA
14:00 15.1 -3.4 28 35 21   98.72     LegendNANA
15:00 15.5 -3.7 27 1 18   98.72     LegendNANA
16:00 14.8 -3.6 28 34 16   98.76     LegendNANA
17:00 13.6 -3.8 30 1 12   98.78     LegendNANA
18:00 12.8 -3.5 32 1 8   98.82     LegendNANA
19:00 12.5 -4.0 31 7 13   98.86     LegendNANA
20:00 12.2 -4.0 32 7 11   98.91     LegendNANA
21:00 12.0 -4.2 32 7 12   98.95     LegendNANA
22:00 11.6 -4.8 31 4 12   99.01     LegendNANA
23:00 10.7 -5.8 31 2 12   99.02     LegendNANA

Notes on Data Quality.

Legend

  • E = Estimated
  • M = Missing
  • NA = Not Available
  • ‡ = Partner data that is not subject to review by the National Climate Archives
Date modified: